Regional Weather Roundup
Issued by NWS Goodland, KS

Home | Current Version | Previous Version | Graphics & Text | Print | Product List | Glossary On
Versions: 1 2 3 4 5 6 7 8 9 10 11 12 13 14 15 16 17 18 19 20 21 22 23 24 25 26 27 28 29 30 31 32 33 34 35 36 37 38 39 40 41 42 43 44 45 46 47 48 49 50
000
ASUS43 KGLD 120908
RWRGLD

GOODLAND FORECAST AREA HOURLY WEATHER ROUNDUP
NATIONAL WEATHER SERVICE GOODLAND KS
200 AM MST FRI FEB 12 2016

...OFFICIAL OBSERVATIONS...

CITY           SKY/WX    TMP DP  RH WIND       PRES   REMARKS
GOODLAND KS    CLOUDY    29  24  82 W7        30.26R
HILL CITY KS   NOT AVBL
IMPERIAL NEB   CLEAR     28  24  85 W7        30.26R
MCCOOK NEB     CLEAR     30  26  85 NW5       30.26R
AKRON CO       CLOUDY    33  26  75 W9        30.27S
BURLINGTON CO  CLOUDY    32  25  75 W10       30.28R
LIMON CO       CLOUDY    22  19  89 CALM      30.31R
$$

...UNOFFICIAL OBSERVATIONS...

CITY           SKY/WX    TMP DP  RH WIND       PRES   REMARKS
COLBY KS       CLEAR     32  30  93 W5        30.27R
GOVE KS          N/A     37  32  82 MISG        N/A
LENORA KS        N/A     35  32  89 MISG        N/A
NORTON KS      CLEAR     28  25  86 NW8       30.25R
SHARON SPRINGS   N/A     32  27  82 W6          N/A
KIT CARSON CO    N/A     30  25  81 MISG        N/A
YUMA CO          N/A     30  27  88 CALM        N/A
$$



USA.gov is the U.S. government's official web portal to all federal, state and local government web resources and services.